Temp_Advection
nan nan nan nan nan nan nan nan nan nan nan nan nan nan nan nan nan nan nan nan nan nan
nan 0 0 0 0 0 -0 0 0 0 -0 -1 -0 0 0 0 1 1 -1 -0 -0 nan
nan -0 -0 0 0 -0 -0 -0 0 -0 -0 0 0 0 0 0 0 -0 -0 -0 -1 nan
nan -0 0 0 -0 -0 0 0 -0 -0 0 -0 0 -0 0 0 -0 -0 -0 -0 -1 nan
nan 0 0 0 -0 -0 -0 -0 -0 -0 -0 -0 -0 -0 0 -0 -0 -0 -1 -1 -1 nan
nan 0 0 0 0 0 0 0 0 0 0 -0 -0 -0 -0 -0 -0 -0 -0 -0 -0 nan
nan -0 -0 -0 0 0 0 -0 0 0 0 0 1 0 0 1 0 -0 -1 -1 -0 nan
nan 0 -0 -0 0 0 -0 -0 0 0 0 -0 -0 -0 0 0 0 0 -0 -0 -0 nan
nan 0 0 0 0 0 0 0 0 -0 -0 0 0 0 -0 -0 -0 -0 -1 -0 -0 nan
nan 0 -0 0 0 0 -0 -0 -0 0 1 0 0 0 -0 -0 -0 -1 -1 -0 0 nan
nan 0 0 0 -0 -0 0 0 0 0 -0 -0 0 1 -0 0 0 -0 -0 -0 -0 nan
nan 0 0 0 0 0 0 0 0 -0 0 0 0 -0 0 0 0 -0 -0 0 1 nan
nan 0 0 0 -0 0 0 0 -0 0 0 0 -0 -0 0 0 1 1 0 1 0 nan
nan nan nan nan nan nan nan nan nan nan nan nan nan nan nan nan nan nan nan nan nan nan
Wind_Speed
18 18 20 26 30 31 40 41 34 35 33 38 43 40 36 40 41 43 38 34 36 38
19 20 20 20 22 29 32 33 35 37 36 39 43 44 40 40 42 36 34 36 39 40
21 20 19 18 20 21 25 29 33 38 40 38 36 36 35 37 33 40 39 42 41 41
24 23 21 21 22 22 22 26 30 33 41 40 38 35 34 35 35 37 40 41 43 43
25 24 25 24 24 23 26 27 31 33 38 41 42 42 42 42 42 45 46 47 47 47
26 26 27 25 23 24 24 27 30 32 36 38 44 45 46 46 46 48 48 47 48 48
24 24 25 27 28 28 28 28 30 32 34 36 40 45 48 49 49 50 51 51 51 52
20 22 23 24 26 29 30 32 33 33 36 38 40 43 46 49 53 55 56 57 56 56
19 20 22 24 26 29 30 30 30 35 38 39 42 44 44 45 46 48 52 56 56 55
17 18 20 23 26 30 32 32 34 34 35 37 38 41 42 43 44 45 48 49 50 51
13 14 18 21 22 22 24 30 36 37 38 37 38 40 40 40 42 44 45 47 48 49
8 9 10 13 14 21 26 28 31 30 34 38 39 42 42 42 43 45 45 45 45 53
3 2 4 5 5 9 14 20 22 28 32 35 39 41 42 45 46 47 48 48 52 55
12 9 6 5 4 4 4 4 7 13 21 23 27 31 38 41 43 41 39 42 42 42
Wind_Direction
208 210 209 205 207 211 211 214 219 215 216 215 213 212 215 220 218 217 223 228 234 233
210 210 216 218 216 216 219 224 225 218 216 214 214 218 224 227 229 229 225 225 235 240
216 219 221 228 231 226 221 222 223 226 217 217 218 219 227 231 226 223 226 230 237 242
214 222 221 228 238 236 232 230 228 224 218 221 223 223 227 231 231 230 232 238 242 245
215 218 225 228 230 232 231 232 232 230 228 231 232 233 233 235 239 240 241 244 245 248
220 222 224 227 231 233 237 238 238 238 239 240 238 239 239 240 241 244 246 249 253 257
228 232 231 232 234 235 237 239 243 245 246 244 244 246 247 245 245 247 251 254 256 258
244 243 244 244 242 243 243 245 247 249 251 252 251 251 251 254 256 256 256 258 259 261
251 253 252 251 251 251 254 255 252 250 251 253 253 255 256 259 261 262 262 263 265 266
242 249 254 259 259 258 257 261 262 261 259 261 264 264 264 262 261 262 263 265 268 270
217 230 244 256 261 264 264 263 263 264 265 267 272 270 271 271 268 266 266 267 270 272
229 235 240 245 245 243 249 254 259 268 270 268 262 265 267 269 267 265 266 270 271 266
107 240 259 256 255 246 250 250 251 250 253 257 256 262 266 265 265 261 261 260 260 263
58 56 49 30 336 297 278 283 268 251 245 245 247 249 254 259 260 260 259 255 253 257
Height
1432 1436 1440 1445 1450 1454 1458 1462 1468 1473 1478 1483 1490 1495 1500 1504 1506 1511 1514 1518 1521 1523
1431 1435 1439 1443 1448 1451 1456 1461 1465 1470 1476 1480 1486 1491 1495 1498 1502 1506 1510 1513 1515 1518
1428 1433 1438 1442 1445 1449 1454 1459 1463 1467 1473 1478 1482 1486 1491 1494 1497 1501 1504 1507 1510 1513
1427 1432 1437 1441 1444 1447 1452 1456 1459 1465 1470 1475 1479 1482 1486 1489 1493 1496 1499 1502 1504 1505
1426 1430 1434 1437 1441 1445 1448 1452 1456 1461 1466 1470 1474 1478 1481 1484 1487 1489 1492 1494 1496 1497
1425 1428 1432 1436 1440 1443 1446 1449 1453 1456 1460 1463 1466 1469 1473 1476 1479 1480 1482 1484 1485 1487
1424 1427 1430 1434 1437 1441 1445 1448 1449 1451 1454 1456 1459 1462 1465 1468 1470 1472 1474 1476 1477 1479
1422 1425 1428 1430 1433 1436 1439 1442 1445 1448 1450 1451 1452 1454 1456 1460 1462 1464 1465 1466 1466 1467
1419 1422 1423 1426 1428 1431 1433 1436 1439 1440 1442 1443 1444 1446 1449 1452 1453 1454 1454 1454 1455 1455
1414 1417 1420 1422 1424 1425 1428 1430 1431 1433 1435 1436 1437 1439 1441 1443 1444 1444 1444 1444 1444 1444
1410 1412 1414 1416 1418 1420 1422 1423 1425 1426 1428 1430 1430 1431 1431 1433 1434 1434 1433 1432 1432 1431
1409 1409 1410 1411 1412 1413 1414 1416 1418 1420 1422 1422 1422 1420 1420 1422 1423 1423 1422 1422 1423 1419
1406 1407 1407 1408 1408 1408 1408 1409 1410 1411 1412 1412 1413 1412 1412 1412 1413 1414 1414 1413 1410 1407
1406 1406 1405 1406 1407 1405 1404 1404 1404 1405 1405 1404 1404 1403 1402 1402 1403 1404 1403 1401 1399 1397